Weather History for Greenville, AL

Change the Weather History Date:

Thursday, September 1, 2011

  Actual Average Record
Temperature  
Mean Temperature 83 °F -  
Max Temperature 93 °F 89 °F 98 °F (1957)
Min Temperature 73 °F 68 °F 58 °F (1946)
Cooling Degree Days 18    
Growing Degree Days 33 (Base 50)    
Moisture  
Dew Point 69 °F    
Average Humidity 68    
Maximum Humidity 94    
Minimum Humidity 37    
Precipitation  
Precipitation 0.00 in - - ()
Sea Level Pressure  
Sea Level Pressure 30.04 in    
Wind  
Wind Speed 3 mph (ESE)    
Max Wind Speed 9 mph    
Max Gust Speed -    
Visibility 10 miles    
Events      
Averages and records for this station are not official NWS values.
T = Trace of Precipitation, MM = Missing Value Source: NWS Daily Summary

Daily Weather History Graph

Daily Weather History Graph

Search for Another Location

Airport:

Trip Planner

Search our weather history database for the weather conditions in past years. The results will help you decide how hot, cold, wet, or windy it might be!

Date:

Astronomy

Sep. 01, 2011 Rise Set
Actual Time 6:21 AM CDT 7:10 PM CDT
Civil Twilight 5:56 AM CDT 7:35 PM CDT
Nautical Twilight 5:27 AM CDT 8:04 PM CDT
Astronomical Twilight 4:57 AM CDT 8:34 PM CDT
Moon 10:19 AM CDT (9/1) 9:24 PM CDT (9/1)
Length of Visible Light 13h 38m
Length of Day
12h 48m
Waxing Crescent, 18% of the Moon is Illuminated
Sep 1
Waxing Crescent
Sep 4
First Quarter
Sep 12
Full
Sep 20
Last Quarter
Sep 27
New

Hourly Weather History & Observations

Time (CDT) Temp. Heat Index Dew Point Humidity Pressure Visibility Wind Dir Wind Speed Gust Speed Precip Events Conditions
12:56 AM 75.9 °F - 73.9 °F 94% 30.06 in 10.0 mi Calm Calm - N/A   Clear
1:56 AM 75.0 °F - 73.0 °F 94% 30.04 in 10.0 mi Calm Calm - N/A   Clear
2:56 AM 75.0 °F - 72.0 °F 90% 30.04 in 10.0 mi Calm Calm - N/A   Clear
3:56 AM 75.0 °F - 72.0 °F 90% 30.05 in 10.0 mi Calm Calm - N/A   Clear
4:56 AM 73.9 °F - 71.1 °F 91% 30.05 in 10.0 mi Calm Calm - N/A   Clear
5:56 AM 73.9 °F - 71.1 °F 91% 30.07 in 10.0 mi Calm Calm - N/A   Clear
6:56 AM 73.9 °F - 72.0 °F 93% 30.09 in 8.0 mi Calm Calm - N/A   Clear
7:56 AM 75.9 °F - 73.0 °F 91% 30.10 in 9.0 mi East 6.9 mph - N/A   Clear
8:56 AM 81.0 °F 86.2 °F 73.9 °F 79% 30.09 in 10.0 mi ESE 4.6 mph - N/A   Clear
9:56 AM 84.0 °F 90.2 °F 73.0 °F 69% 30.10 in 10.0 mi ESE 6.9 mph - N/A   Clear
10:56 AM 87.1 °F 93.6 °F 72.0 °F 61% 30.10 in 10.0 mi NE 8.1 mph - N/A   Partly Cloudy
11:56 AM 90.0 °F 96.9 °F 72.0 °F 55% 30.07 in 10.0 mi NE 6.9 mph - N/A   Clear
12:56 PM 91.9 °F 94.5 °F 66.0 °F 42% 30.06 in 10.0 mi East 8.1 mph - N/A   Clear
1:56 PM 93.9 °F 97.0 °F 66.0 °F 40% 30.02 in 10.0 mi ENE 9.2 mph - N/A   Clear
2:56 PM 93.9 °F 95.6 °F 64.0 °F 37% 30.00 in 10.0 mi East 8.1 mph - N/A   Clear
3:56 PM 93.9 °F 95.6 °F 64.0 °F 37% 29.99 in 10.0 mi ENE 5.8 mph - N/A   Clear
4:56 PM 91.9 °F 93.3 °F 64.0 °F 39% 29.99 in 10.0 mi East 4.6 mph - N/A   Clear
5:56 PM 91.0 °F 93.8 °F 66.0 °F 44% 29.99 in 10.0 mi ESE 3.5 mph - N/A   Clear
6:56 PM 88.0 °F 90.3 °F 66.0 °F 48% 29.98 in 10.0 mi SE 3.5 mph - N/A   Clear
7:56 PM 84.9 °F 87.1 °F 66.0 °F 53% 29.99 in 10.0 mi Calm Calm - N/A   Clear
8:56 PM 81.0 °F 83.0 °F 66.0 °F 60% 30.00 in 10.0 mi South 8.1 mph - N/A   Clear
9:56 PM 80.1 °F 82.7 °F 68.0 °F 67% 30.01 in 10.0 mi South 3.5 mph - N/A   Clear
10:56 PM 79.0 °F - 70.0 °F 74% 30.02 in 10.0 mi SSW 3.5 mph - N/A   Clear
11:56 PM 78.1 °F - 72.0 °F 81% 30.01 in 10.0 mi Calm Calm - N/A   Clear